カタログに戻る

CZ-6A DEB

運用中SSO
NORAD 56635·DEBRIS·🇨🇳 China

打ち上げ Nov 11, 2022 から Taiyuan Satellite Launch Center

Loading…

次のパス (今後24時間)

TLE

最新Source: Space-Track

元期: Sep 13, 2026, 23:10 UTC

1 56635U 22151AFK 26256.96548912  .00000170  00000-0  98757-4 0  9999
2 56635  98.7538 266.7838 0031994  90.1270 270.3573 14.20631967175595

AllMySatでCZ-6A DEBをリアルタイム追跡

Download on the App Store